| time (UTC) | temp C | wind direction | speed KPH | gust KPH | rain 1hr cm | rain 24hr cm | rain mn cm | humidity % | barometer mb |
| 20260508064501 | 10 | 46 | 4.8 | 11.3 | 0.00 | 0.36 | 0.00 | 77 | 1013.6 |
| 20260508063000 | 10 | 27 | 8.0 | 11.3 | 0.00 | 0.36 | 0.00 | 78 | 1013.5 |
| 20260508061502 | 10 | 38 | 4.8 | 14.5 | 0.00 | 0.36 | 0.00 | 78 | 1013.4 |
| 20260508060059 | 10 | 49 | 6.4 | 12.9 | 0.00 | 0.36 | 0.00 | 79 | 1013.5 |
| 20260508060002 | 10 | 39 | 4.8 | 12.9 | 0.00 | 0.36 | 0.00 | 79 | 1013.6 |
| 20260508054600 | 10 | 44 | 8.0 | 16.1 | 0.00 | 0.36 | 0.00 | 79 | 1013.4 |
| 20260508054501 | 10 | 39 | 8.0 | 16.1 | 0.00 | 0.36 | 0.00 | 79 | 1013.5 |
| 20260508053001 | 10 | 22 | 4.8 | 9.7 | 0.00 | 0.36 | 0.00 | 79 | 1013.6 |
| 20260508051620 | 10 | 63 | 3.2 | 12.9 | 0.00 | 0.36 | 0.00 | 79 | 1013.6 |
| 20260508050001 | 10 | 8 | 4.8 | 9.7 | 0.00 | 0.36 | 0.00 | 78 | 1013.6 |
| 20260508044605 | 10 | 70 | 4.8 | 8.0 | 0.00 | 0.36 | 0.00 | 79 | 1013.6 |
| 20260508044502 | 10 | 60 | 4.8 | 8.0 | 0.00 | 0.36 | 0.00 | 78 | 1013.5 |
| 20260508043100 | 10 | 67 | 4.8 | 8.0 | 0.00 | 0.36 | 0.00 | 79 | 1013.4 |
| 20260508041559 | 10 | 51 | 4.8 | 9.7 | 0.00 | 0.36 | 0.00 | 79 | 1013.2 |
| 20260508040100 | 10 | 23 | 0.0 | 6.4 | 0.00 | 0.36 | 0.00 | 80 | 1013.1 |
| 20260508040001 | 10 | 23 | 1.6 | 6.4 | 0.00 | 0.36 | 0.00 | 80 | 1013.1 |
| 20260508034601 | 10 | 84 | 0.0 | 6.4 | 0.00 | 0.36 | 0.00 | 81 | 1013.0 |
| 20260508033003 | 9 | 24 | 4.8 | 8.0 | 0.00 | 0.36 | 0.00 | 81 | 1013.1 |
| 20260508031605 | 9 | 336 | 0.0 | 9.7 | 0.00 | 0.36 | 0.00 | 81 | 1013.2 |
| 20260508030119 | 9 | 317 | 0.0 | 6.4 | 0.00 | 0.36 | 0.00 | 82 | 1013.1 |
| 20260508030004 | 9 | 4 | 0.0 | 6.4 | 0.00 | 0.36 | 0.00 | 82 | 1013.1 |
| 20260508024604 | 9 | 37 | 1.6 | 4.8 | 0.00 | 0.36 | 0.00 | 82 | 1013.1 |
| 20260508023100 | 9 | 16 | 1.6 | 12.9 | 0.00 | 0.36 | 0.00 | 82 | 1012.9 |
| 20260508021601 | 9 | 30 | 8.0 | 14.5 | 0.00 | 0.36 | 0.00 | 82 | 1012.9 |
| 20260508020109 | 10 | 23 | 3.2 | 8.0 | 0.00 | 0.36 | 0.00 | 81 | 1013.2 |
| 20260508020001 | 10 | 354 | 3.2 | 8.0 | 0.00 | 0.36 | 0.00 | 81 | 1013.1 |
| 20260508014600 | 10 | 19 | 1.6 | 9.7 | 0.00 | 0.36 | 0.00 | 81 | 1013.3 |
| 20260508013100 | 10 | 18 | 1.6 | 9.7 | 0.00 | 0.36 | 0.00 | 81 | 1013.7 |
| 20260508011601 | 10 | 47 | 4.8 | 9.7 | 0.00 | 0.36 | 0.00 | 81 | 1013.8 |
| 20260508010123 | 10 | 59 | 3.2 | 9.7 | 0.00 | 0.36 | 0.00 | 81 | 1013.7 |
| 20260508004559 | 10 | 15 | 1.6 | 4.8 | 0.00 | 0.36 | 0.00 | 81 | 1014.0 |
| 20260508003117 | 10 | 79 | 1.6 | 4.8 | 0.00 | 0.36 | 0.00 | 81 | 1014.2 |
| 20260508001602 | 11 | 353 | 1.6 | 8.0 | 0.00 | 0.36 | 0.00 | 80 | 1014.3 |
| 20260508000059 | 11 | 65 | 1.6 | 6.4 | 0.00 | 0.36 | 0.00 | 81 | 1014.4 |
| 20260507234559 | 11 | 24 | 0.0 | 3.2 | 0.00 | 0.36 | 0.00 | 79 | 1014.5 |
| 20260507233059 | 11 | 30 | 3.2 | 8.0 | 0.00 | 0.36 | 0.00 | 77 | 1014.5 |
| 20260507231558 | 11 | 28 | 0.0 | 4.8 | 0.00 | 0.36 | 0.00 | 75 | 1014.6 |
| 20260507230112 | 11 | 78 | 1.6 | 3.2 | 0.00 | 0.36 | 0.00 | 76 | 1014.9 |
| 20260507230001 | 11 | 88 | 1.6 | 3.2 | 0.00 | 0.36 | 0.00 | 76 | 1014.8 |
| 20260507224501 | 11 | 76 | 1.6 | 4.8 | 0.00 | 0.36 | 0.00 | 76 | 1014.8 |
| 20260507223001 | 11 | 85 | 0.0 | 9.7 | 0.00 | 0.36 | 0.00 | 76 | 1014.7 |
| 20260507221600 | 12 | 96 | 1.6 | 4.8 | 0.00 | 0.36 | 0.00 | 75 | 1014.7 |
| 20260507220101 | 12 | 66 | 0.0 | 4.8 | 0.00 | 0.36 | 0.00 | 74 | 1014.7 |
| 20260507220001 | 12 | 58 | 0.0 | 4.8 | 0.00 | 0.36 | 0.36 | 74 | 1014.7 |
| 20260507214501 | 12 | 88 | 0.0 | 3.2 | 0.00 | 0.36 | 0.36 | 75 | 1014.7 |
| 20260507213144 | 12 | 109 | 0.0 | 6.4 | 0.00 | 0.36 | 0.36 | 73 | 1014.5 |
| 20260507213001 | 12 | 119 | 1.6 | 6.4 | 0.00 | 0.36 | 0.36 | 73 | 1014.5 |
| 20260507211601 | 12 | 107 | 1.6 | 4.8 | 0.00 | 0.36 | 0.36 | 73 | 1014.5 |
| 20260507210003 | 12 | 148 | 0.0 | 3.2 | 0.00 | 0.36 | 0.36 | 72 | 1014.2 |
| 20260507204501 | 12 | 344 | 0.0 | 6.4 | 0.00 | 0.36 | 0.36 | 71 | 1013.9 |
| 20260507203005 | 12 | 58 | 1.6 | 8.0 | 0.00 | 0.36 | 0.36 | 69 | 1013.7 |
| 20260507201502 | 12 | 49 | 1.6 | 6.4 | 0.00 | 0.36 | 0.36 | 69 | 1013.5 |
| 20260507200005 | 13 | 39 | 3.2 | 9.7 | 0.00 | 0.36 | 0.36 | 70 | 1013.3 |
| 20260507194501 | 13 | 60 | 4.8 | 8.0 | 0.00 | 0.36 | 0.36 | 71 | 1013.0 |
| 20260507193101 | 13 | 67 | 3.2 | 8.0 | 0.00 | 0.36 | 0.36 | 70 | 1012.8 |
| 20260507193006 | 13 | 52 | 3.2 | 8.0 | 0.00 | 0.36 | 0.36 | 70 | 1012.9 |
| 20260507191501 | 13 | 10 | 1.6 | 4.8 | 0.00 | 0.36 | 0.36 | 70 | 1012.7 |
| 20260507190006 | 13 | 49 | 1.6 | 11.3 | 0.00 | 0.36 | 0.36 | 68 | 1012.4 |
| 20260507184504 | 13 | 351 | 4.8 | 11.3 | 0.00 | 0.36 | 0.36 | 66 | 1012.3 |
| 20260507183006 | 13 | 333 | 3.2 | 11.3 | 0.00 | 0.36 | 0.36 | 66 | 1012.0 |
| 20260507181502 | 13 | 74 | 1.6 | 4.8 | 0.00 | 0.36 | 0.36 | 65 | 1011.8 |
| 20260507180005 | 13 | 58 | 1.6 | 8.0 | 0.00 | 0.36 | 0.36 | 66 | 1011.9 |
| 20260507174604 | 13 | 41 | 3.2 | 11.3 | 0.00 | 0.36 | 0.36 | 66 | 1011.9 |
| 20260507173102 | 13 | 37 | 3.2 | 12.9 | 0.00 | 0.36 | 0.36 | 65 | 1011.9 |
| 20260507173003 | 13 | 89 | 6.4 | 12.9 | 0.00 | 0.36 | 0.36 | 65 | 1011.9 |
| 20260507171606 | 13 | 13 | 4.8 | 12.9 | 0.00 | 0.36 | 0.36 | 65 | 1012.0 |
| 20260507170002 | 13 | 4 | 6.4 | 17.7 | 0.00 | 0.36 | 0.36 | 68 | 1012.1 |
| 20260507164603 | 13 | 9 | 4.8 | 17.7 | 0.00 | 0.36 | 0.36 | 75 | 1012.0 |
| 20260507163002 | 12 | 17 | 4.8 | 14.5 | 0.00 | 0.36 | 0.36 | 78 | 1011.9 |
| 20260507161611 | 12 | 293 | 1.6 | 8.0 | 0.00 | 0.36 | 0.36 | 77 | 1011.8 |
| 20260507160004 | 12 | 56 | 6.4 | 0.0 | 2.67 | 0.00 | 0.36 | 76 | 1011.3 |
| 20260507154600 | 12 | 19 | 3.2 | 8.0 | 0.05 | 0.36 | 0.36 | 78 | 1011.2 |
| 20260507153001 | 11 | 35 | 6.4 | 14.5 | 0.10 | 0.36 | 0.36 | 79 | 1011.2 |
| 20260507151501 | 12 | 91 | 3.2 | 12.9 | 0.18 | 0.36 | 0.36 | 74 | 1012.1 |
| 20260507150003 | 11 | 121 | 3.2 | 14.5 | 0.18 | 0.33 | 0.33 | 77 | 1012.3 |
| 20260507144501 | 11 | 90 | 1.6 | 12.9 | 0.30 | 0.33 | 0.33 | 80 | 1012.3 |
| 20260507143102 | 11 | 113 | 16.1 | 24.1 | 0.23 | 0.25 | 0.25 | 75 | 1012.1 |
| 20260507141501 | 11 | 109 | 6.4 | 17.7 | 0.15 | 0.18 | 0.18 | 81 | 1012.0 |
| 20260507140002 | 12 | 114 | 4.8 | 19.3 | 0.13 | 0.15 | 0.15 | 80 | 1012.3 |
| 20260507134501 | 12 | 94 | 8.0 | 19.3 | 0.03 | 0.03 | 0.03 | 74 | 1012.7 |
| 20260507133001 | 12 | 142 | 12.9 | 32.2 | 0.03 | 0.03 | 0.03 | 73 | 1012.2 |
| 20260507131502 | 13 | 95 | 9.7 | 29.0 | 0.03 | 0.03 | 0.03 | 73 | 1011.7 |
| 20260507130110 | 13 | 119 | 9.7 | 24.1 | 0.03 | 0.03 | 0.03 | 68 | 1011.7 |
| 20260507124620 | 16 | 137 | 6.4 | 17.7 | 0.00 | 0.00 | 0.00 | 59 | 1011.2 |
| 20260507123109 | 16 | 107 | 1.6 | 9.7 | 0.00 | 0.00 | 0.00 | 57 | 1011.4 |
| 20260507121604 | 17 | 147 | 1.6 | 12.9 | 0.00 | 0.00 | 0.00 | 57 | 1011.5 |
| 20260507114603 | 17 | 155 | 8.0 | 12.9 | 0.00 | 0.00 | 0.00 | 53 | 1011.7 |
| 20260507113059 | 17 | 172 | 4.8 | 11.3 | 0.00 | 0.00 | 0.00 | 54 | 1011.9 |
| 20260507111600 | 17 | 136 | 1.6 | 9.7 | 0.00 | 0.00 | 0.00 | 56 | 1012.2 |
| 20260507110059 | 16 | 107 | 6.4 | 16.1 | 0.00 | 0.00 | 0.00 | 58 | 1012.3 |
| 20260507104559 | 16 | 172 | 3.2 | 11.3 | 0.00 | 0.00 | 0.00 | 59 | 1012.5 |
| 20260507103114 | 15 | 161 | 3.2 | 12.9 | 0.00 | 0.00 | 0.00 | 61 | 1012.7 |
| 20260507101603 | 15 | 131 | 1.6 | 16.1 | 0.00 | 0.00 | 0.00 | 63 | 1012.9 |
| 20260507100113 | 15 | 318 | 4.8 | 16.1 | 0.00 | 0.00 | 0.00 | 63 | 1012.9 |
| 20260507100002 | 15 | 3 | 6.4 | 16.1 | 0.00 | 0.00 | 0.00 | 63 | 1013.0 |
| 20260507094501 | 14 | 124 | 1.6 | 9.7 | 0.00 | 0.00 | 0.00 | 65 | 1013.0 |
| 20260507093102 | 14 | 94 | 6.4 | 12.9 | 0.00 | 0.00 | 0.00 | 65 | 1013.0 |
| 20260507093001 | 14 | 71 | 6.4 | 12.9 | 0.00 | 0.00 | 0.00 | 65 | 1013.0 |
| 20260507091601 | 14 | 316 | 1.6 | 9.7 | 0.00 | 0.00 | 0.00 | 64 | 1013.1 |
| 20260507090001 | 14 | 298 | 3.2 | 11.3 | 0.00 | 0.00 | 0.00 | 64 | 1012.9 |
| 20260507084602 | 13 | 62 | 1.6 | 17.7 | 0.00 | 0.00 | 0.00 | 68 | 1013.0 |
| 20260507083119 | 13 | 20 | 3.2 | 12.9 | 0.00 | 0.00 | 0.00 | 68 | 1013.0 |
| 20260507081605 | 12 | 69 | 3.2 | 9.7 | 0.00 | 0.00 | 0.00 | 70 | 1013.0 |
| 20260507080059 | 12 | 23 | 8.0 | 16.1 | 0.00 | 0.00 | 0.00 | 70 | 1012.9 |
| 20260507074621 | 12 | 18 | 4.8 | 16.1 | 0.00 | 0.00 | 0.00 | 71 | 1012.9 |
| 20260507073104 | 12 | 6 | 4.8 | 9.7 | 0.00 | 0.00 | 0.00 | 71 | 1012.9 |
| 20260507071559 | 12 | 55 | 4.8 | 16.1 | 0.00 | 0.00 | 0.00 | 71 | 1013.0 |
| 20260507070104 | 12 | 324 | 8.0 | 17.7 | 0.00 | 0.00 | 0.00 | 71 | 1012.9 |